Morristown, NJ

5:22 AM EDT on June 23, 2018 (GMT -0400)
Morristown Municipal

Weather History for KMMU - October, 2017

Change the Weather History Date:

Tuesday, October 31, 2017

  Actual Average Record
Temperature  
Mean Temperature 52 °F -  
Max Temperature 69 °F 58 °F 82 °F (1946)
Min Temperature 35 °F 33 °F 23 °F (1966)
Degree Days  
Heating Degree Days 13    
Growing Degree Days 2 (Base 50)    
Moisture  
Dew Point 34 °F    
Average Humidity 68    
Maximum Humidity 100    
Minimum Humidity 20    
Precipitation  
Precipitation 0.00 in - - ()
Sea Level Pressure  
Sea Level Pressure 30.02 in    
Wind  
Wind Speed 4 mph (West)    
Max Wind Speed 20 mph    
Max Gust Speed 30 mph    
Visibility 11 miles    
Events      
Averages and records for this station are not official NWS values.
T = Trace of Precipitation, MM = Missing Value Source: NWS Daily Summary

Daily Weather History Graph

Daily Weather History Graph

Search for Another Location

Airport or City:

Astronomy

Oct. 31, 2017 Rise Set
Actual Time 7:27 AM EDT 5:54 PM EDT
Civil Twilight 6:58 AM EDT 6:23 PM EDT
Nautical Twilight 6:26 AM EDT 6:55 PM EDT
Astronomical Twilight 5:54 AM EDT 7:27 PM EDT
Moon 4:17 PM EDT (10/31) 3:07 AM EDT (10/31)
Length of Visible Light 11h 24m
Length of Day
10h 27m
Waxing Gibbous, 84% of the Moon is Illuminated
Oct 31
Waxing Gibbous
Nov 4
Full
Nov 10
Last Quarter
Nov 18
New
Nov 26
First Quarter

Hourly Weather History & Observations

Time (EDT) Temp. Windchill Dew Point Humidity Pressure Visibility Wind Dir Wind Speed Gust Speed Precip Events Conditions
12:15 AM 46.4 °F 44.3 °F 35.6 °F 66% 29.87 in 10.0 mi SSW 4.6 mph - N/A   Clear
12:35 AM 46.4 °F 44.3 °F 35.6 °F 66% 29.87 in 10.0 mi SSW 4.6 mph - N/A   Clear
12:55 AM 46.4 °F 45.2 °F 35.6 °F 66% 29.87 in 10.0 mi SSW 3.5 mph - N/A   Clear
1:15 AM 46.4 °F 44.3 °F 35.6 °F 66% 29.88 in 10.0 mi SSW 4.6 mph - N/A   Clear
1:35 AM 44.6 °F - 35.6 °F 71% 29.89 in 10.0 mi Calm Calm - N/A   Clear
1:55 AM 44.6 °F - 35.6 °F 71% 29.90 in 10.0 mi Calm Calm - N/A   Clear
2:15 AM 44.6 °F - 37.4 °F 76% 29.90 in 10.0 mi Calm Calm - N/A   Clear
2:35 AM 44.6 °F - 39.2 °F 81% 29.91 in 10.0 mi Calm Calm - N/A   Clear
2:55 AM 44.6 °F - 39.2 °F 81% 29.92 in 10.0 mi Calm Calm - N/A   Scattered Clouds
3:15 AM 44.6 °F - 37.4 °F 76% 29.92 in 10.0 mi Calm Calm - N/A   Overcast
3:35 AM 42.8 °F - 37.4 °F 81% 29.93 in 10.0 mi Calm Calm - N/A   Scattered Clouds
3:55 AM 42.8 °F - 39.2 °F 87% 29.93 in 10.0 mi Calm Calm - N/A   Mostly Cloudy
4:15 AM 42.8 °F - 39.2 °F 87% 29.94 in 10.0 mi Calm Calm - N/A   Mostly Cloudy
4:35 AM 41.0 °F - 37.4 °F 87% 29.95 in 10.0 mi Calm Calm - N/A   Clear
4:55 AM 41.0 °F 39.0 °F 37.4 °F 87% 29.95 in 10.0 mi SW 3.5 mph - N/A   Clear
5:15 AM 39.2 °F - 37.4 °F 93% 29.95 in 10.0 mi Calm Calm - N/A   Clear
5:35 AM 41.0 °F 39.0 °F 37.4 °F 87% 29.96 in 10.0 mi West 3.5 mph - N/A   Clear
5:55 AM 39.2 °F - 37.4 °F 93% 29.97 in 10.0 mi Calm Calm - N/A   Clear
6:15 AM 39.2 °F - 37.4 °F 93% 29.98 in 10.0 mi Calm Calm - N/A   Clear
6:35 AM 39.2 °F - 37.4 °F 93% 29.98 in 10.0 mi Calm Calm - N/A   Clear
7:45 AM 35.6 °F - 35.6 °F 100% 30.01 in 15.0 mi Calm Calm - N/A   Partly Cloudy
8:45 AM 46.4 °F 42.4 °F 35.6 °F 66% 30.03 in 15.0 mi WSW 8.1 mph - N/A   Scattered Clouds
9:45 AM 50.0 °F - 35.6 °F 58% 30.05 in 15.0 mi West 15.0 mph 24.2 mph N/A   Scattered Clouds
10:45 AM 50.0 °F - 32.0 °F 50% 30.06 in 15.0 mi West 15.0 mph 23.0 mph N/A   Scattered Clouds
11:45 AM 53.6 °F - 32.0 °F 44% 30.06 in 15.0 mi West 15.0 mph 26.5 mph N/A   Scattered Clouds
12:50 PM 53.6 °F - 30.2 °F 41% 30.05 in 15.0 mi West 13.8 mph 26.5 mph N/A   Partly Cloudy
1:55 PM 55.4 °F - 28.4 °F 36% 30.06 in 15.0 mi WNW 19.6 mph 29.9 mph N/A   Partly Cloudy
2:45 PM 55.4 °F - 30.2 °F 38% 30.06 in 10.0 mi West 11.5 mph 26.5 mph N/A   Partly Cloudy
3:45 PM 55.4 °F - 28.4 °F 36% 30.08 in 10.0 mi West 10.4 mph 20.7 mph N/A   Partly Cloudy
4:45 PM 69.8 °F - 26.6 °F 20% 30.08 in 10.0 mi WNW 16.1 mph 23.0 mph N/A   Partly Cloudy
5:45 PM 51.8 °F - 26.6 °F 38% 30.11 in 10.0 mi WNW 9.2 mph 17.3 mph N/A   Partly Cloudy
6:45 PM 50.0 °F - 26.6 °F 40% 30.15 in 10.0 mi West 8.1 mph - N/A   Clear
7:45 PM 48.2 °F - 28.4 °F 46% 30.17 in 10.0 mi West 6.9 mph - N/A   Clear
9:45 PM 42.8 °F 39.3 °F 30.2 °F 61% 30.22 in 10.0 mi WNW 5.8 mph - N/A   Clear
10:35 PM 41.0 °F - 32.0 °F 70% 30.23 in 10.0 mi Calm Calm - N/A   Clear
10:55 PM 41.0 °F - 32.0 °F 70% 30.23 in 10.0 mi Calm Calm - N/A   Clear
11:15 PM 41.0 °F - 30.2 °F 65% 30.24 in 10.0 mi Calm Calm - N/A   Clear
11:35 PM 41.0 °F - 32.0 °F 70% 30.24 in 10.0 mi Calm Calm - N/A   Clear
11:55 PM 39.2 °F - 33.8 °F 81% 30.25 in 10.0 mi Calm Calm - N/A   Clear